| time (UTC) | temp F | wind direction | speed MPH | gust MPH | rain 1hr in | rain 24hr in | rain mn in | humidity % | barometer mb |
| 20260505181539 | 63 | 265 | 14.0 | 25.0 | 0.00 | 0.00 | 0.00 | 58 | 1013.5 |
| 20260505181037 | 63 | 229 | 14.0 | 24.0 | 0.00 | 0.00 | 0.00 | 58 | 1013.5 |
| 20260505180536 | 63 | 256 | 11.0 | 24.0 | 0.00 | 0.00 | 0.00 | 59 | 1013.6 |
| 20260505180035 | 63 | 227 | 14.0 | 23.0 | 0.00 | 0.00 | 0.00 | 59 | 1013.5 |
| 20260505175533 | 63 | 250 | 13.0 | 27.0 | 0.00 | 0.00 | 0.00 | 59 | 1013.5 |
| 20260505175032 | 63 | 264 | 14.0 | 25.0 | 0.00 | 0.00 | 0.00 | 59 | 1013.4 |
| 20260505174531 | 62 | 266 | 12.0 | 22.0 | 0.00 | 0.00 | 0.00 | 59 | 1013.5 |
| 20260505174030 | 62 | 244 | 13.0 | 23.0 | 0.00 | 0.00 | 0.00 | 60 | 1013.5 |
| 20260505173530 | 62 | 246 | 13.0 | 25.0 | 0.00 | 0.00 | 0.00 | 61 | 1013.5 |
| 20260505173040 | 62 | 284 | 13.0 | 25.0 | 0.00 | 0.00 | 0.00 | 62 | 1013.5 |
| 20260505172529 | 61 | 219 | 12.0 | 25.0 | 0.00 | 0.00 | 0.00 | 63 | 1013.5 |
| 20260505172029 | 62 | 237 | 16.0 | 25.0 | 0.00 | 0.00 | 0.00 | 62 | 1013.4 |
| 20260505171528 | 62 | 207 | 13.0 | 24.0 | 0.00 | 0.00 | 0.00 | 60 | 1013.4 |
| 20260505171029 | 61 | 274 | 11.0 | 23.0 | 0.00 | 0.00 | 0.00 | 64 | 1013.5 |
| 20260505170527 | 61 | 245 | 12.0 | 22.0 | 0.00 | 0.00 | 0.00 | 63 | 1013.5 |
| 20260505170028 | 60 | 262 | 12.0 | 22.0 | 0.00 | 0.00 | 0.00 | 64 | 1013.5 |
| 20260505165526 | 60 | 262 | 11.0 | 25.0 | 0.00 | 0.00 | 0.00 | 65 | 1013.5 |
| 20260505165027 | 60 | 242 | 12.0 | 28.0 | 0.00 | 0.00 | 0.00 | 64 | 1013.5 |
| 20260505164543 | 60 | 269 | 11.0 | 28.0 | 0.00 | 0.00 | 0.00 | 65 | 1013.5 |
| 20260505164023 | 59 | 260 | 7.0 | 28.0 | 0.00 | 0.00 | 0.00 | 66 | 1013.5 |
| 20260505163521 | 59 | 258 | 11.0 | 28.0 | 0.00 | 0.00 | 0.00 | 67 | 1013.5 |
| 20260505163020 | 59 | 228 | 14.0 | 23.0 | 0.00 | 0.00 | 0.00 | 66 | 1013.5 |
| 20260505162520 | 60 | 341 | 9.0 | 23.0 | 0.00 | 0.00 | 0.00 | 65 | 1013.4 |
| 20260505162020 | 60 | 269 | 12.0 | 22.0 | 0.00 | 0.00 | 0.00 | 64 | 1013.4 |
| 20260505161519 | 60 | 258 | 11.0 | 22.0 | 0.00 | 0.00 | 0.00 | 65 | 1013.4 |
| 20260505161019 | 60 | 260 | 6.0 | 22.0 | 0.00 | 0.00 | 0.00 | 64 | 1013.4 |
| 20260505160518 | 60 | 262 | 9.0 | 23.0 | 0.00 | 0.00 | 0.00 | 65 | 1013.3 |
| 20260505153012 | 57 | 191 | 5.0 | 17.0 | 0.00 | 0.00 | 0.00 | 69 | 1013.3 |
| 20260505152510 | 57 | 191 | 6.0 | 17.0 | 0.00 | 0.00 | 0.00 | 70 | 1013.4 |
| 20260505152007 | 57 | 314 | 5.0 | 18.0 | 0.00 | 0.00 | 0.00 | 70 | 1013.3 |
| 20260505151506 | 56 | 236 | 7.0 | 19.0 | 0.00 | 0.00 | 0.00 | 70 | 1013.3 |
| 20260505151005 | 56 | 273 | 8.0 | 19.0 | 0.00 | 0.00 | 0.00 | 70 | 1013.1 |
| 20260505150504 | 57 | 240 | 6.0 | 19.0 | 0.00 | 0.00 | 0.00 | 70 | 1013.3 |
| 20260505140549 | 55 | 269 | 8.0 | 18.0 | 0.00 | 0.00 | 0.00 | 72 | 1012.8 |
| 20260505125040 | 56 | 271 | 3.0 | 8.0 | 0.00 | 0.00 | 0.00 | 68 | 1012.3 |
| 20260505124539 | 56 | 260 | 2.0 | 9.0 | 0.00 | 0.00 | 0.00 | 68 | 1012.2 |
| 20260505124039 | 57 | 251 | 2.0 | 8.0 | 0.00 | 0.00 | 0.00 | 67 | 1012.2 |
| 20260505123536 | 57 | 271 | 0.0 | 12.0 | 0.00 | 0.00 | 0.00 | 67 | 1012.1 |
| 20260505123036 | 57 | 270 | 4.0 | 13.0 | 0.00 | 0.00 | 0.00 | 68 | 1012.1 |
| 20260505122539 | 57 | 269 | 2.0 | 7.0 | 0.00 | 0.00 | 0.00 | 66 | 1012.0 |
| 20260505122037 | 57 | 258 | 1.0 | 7.0 | 0.00 | 0.00 | 0.00 | 67 | 1012.0 |
| 20260505121537 | 57 | 302 | 1.0 | 14.0 | 0.00 | 0.00 | 0.00 | 67 | 1012.0 |
| 20260505121034 | 57 | 257 | 1.0 | 14.0 | 0.00 | 0.00 | 0.00 | 67 | 1011.9 |
| 20260505120532 | 57 | 256 | 2.0 | 10.0 | 0.00 | 0.00 | 0.00 | 66 | 1011.9 |
| 20260505120032 | 57 | 267 | 5.0 | 12.0 | 0.00 | 0.00 | 0.00 | 66 | 1011.8 |
| 20260505115531 | 57 | 260 | 5.0 | 12.0 | 0.00 | 0.00 | 0.00 | 67 | 1011.8 |
| 20260505115033 | 57 | 258 | 3.0 | 13.0 | 0.00 | 0.00 | 0.00 | 67 | 1011.8 |
| 20260505114538 | 57 | 251 | 6.0 | 13.0 | 0.00 | 0.00 | 0.00 | 67 | 1011.8 |
| 20260505114029 | 57 | 240 | 4.0 | 8.0 | 0.00 | 0.00 | 0.00 | 67 | 1011.7 |
| 20260505113528 | 58 | 232 | 1.0 | 9.0 | 0.00 | 0.00 | 0.00 | 67 | 1011.8 |
| 20260505113028 | 58 | 243 | 3.0 | 12.0 | 0.00 | 0.00 | 0.00 | 67 | 1011.7 |
| 20260505112527 | 58 | 244 | 4.0 | 10.0 | 0.00 | 0.00 | 0.00 | 67 | 1011.8 |
| 20260505112026 | 58 | 245 | 6.0 | 10.0 | 0.00 | 0.00 | 0.00 | 67 | 1011.8 |
| 20260505111532 | 58 | 237 | 5.0 | 13.0 | 0.00 | 0.00 | 0.00 | 66 | 1011.7 |
| 20260505111024 | 59 | 267 | 6.0 | 13.0 | 0.00 | 0.00 | 0.00 | 65 | 1011.7 |
| 20260505110525 | 58 | 31 | 1.0 | 12.0 | 0.00 | 0.00 | 0.00 | 65 | 1011.7 |
| 20260505102019 | 58 | 260 | 3.0 | 13.0 | 0.00 | 0.00 | 0.00 | 67 | 1011.3 |
| 20260505101518 | 58 | 250 | 2.0 | 19.0 | 0.00 | 0.00 | 0.00 | 66 | 1011.3 |
| 20260505101017 | 59 | 260 | 7.0 | 15.0 | 0.00 | 0.00 | 0.00 | 66 | 1011.2 |
| 20260505100517 | 59 | 257 | 4.0 | 16.0 | 0.00 | 0.00 | 0.00 | 66 | 1011.1 |
| 20260505100015 | 59 | 268 | 2.0 | 9.0 | 0.00 | 0.00 | 0.00 | 65 | 1011.2 |
| 20260505095515 | 60 | 261 | 1.0 | 9.0 | 0.00 | 0.00 | 0.00 | 64 | 1011.1 |
| 20260505095011 | 60 | 241 | 4.0 | 9.0 | 0.00 | 0.00 | 0.00 | 64 | 1011.0 |
| 20260505094512 | 60 | 256 | 1.0 | 8.0 | 0.00 | 0.00 | 0.00 | 63 | 1011.0 |
| 20260505094017 | 60 | 269 | 3.0 | 8.0 | 0.00 | 0.00 | 0.00 | 63 | 1011.1 |
| 20260505093510 | 60 | 254 | 4.0 | 10.0 | 0.00 | 0.00 | 0.00 | 63 | 1010.9 |
| 20260505093010 | 61 | 236 | 2.0 | 12.0 | 0.00 | 0.00 | 0.00 | 62 | 1010.9 |
| 20260505092509 | 61 | 265 | 3.0 | 12.0 | 0.00 | 0.00 | 0.00 | 63 | 1010.8 |
| 20260505092009 | 61 | 323 | 5.0 | 14.0 | 0.00 | 0.00 | 0.00 | 62 | 1010.9 |
| 20260505091508 | 61 | 270 | 3.0 | 11.0 | 0.00 | 0.00 | 0.00 | 62 | 1010.8 |
| 20260505091006 | 61 | 12 | 1.0 | 9.0 | 0.00 | 0.00 | 0.00 | 62 | 1010.7 |
| 20260505090505 | 62 | 310 | 1.0 | 8.0 | 0.00 | 0.00 | 0.00 | 62 | 1010.6 |
| 20260505090006 | 62 | 270 | 4.0 | 9.0 | 0.00 | 0.00 | 0.00 | 61 | 1010.6 |
| 20260505085507 | 62 | 246 | 2.0 | 12.0 | 0.00 | 0.00 | 0.00 | 61 | 1010.5 |
| 20260505085004 | 62 | 273 | 3.0 | 15.0 | 0.00 | 0.00 | 0.00 | 60 | 1010.5 |
| 20260505084503 | 62 | 191 | 4.0 | 14.0 | 0.00 | 0.00 | 0.00 | 61 | 1010.5 |
| 20260505084002 | 62 | 254 | 1.0 | 9.0 | 0.00 | 0.00 | 0.00 | 62 | 1010.4 |
| 20260505083502 | 62 | 316 | 2.0 | 11.0 | 0.00 | 0.00 | 0.00 | 62 | 1010.5 |
| 20260505083002 | 62 | 191 | 3.0 | 11.0 | 0.00 | 0.00 | 0.00 | 62 | 1010.5 |
| 20260505082602 | 62 | 191 | 1.0 | 11.0 | 0.00 | 0.00 | 0.00 | 63 | 1010.5 |
| 20260505082101 | 63 | 191 | 5.0 | 21.0 | 0.00 | 0.00 | 0.00 | 61 | 1010.4 |
| 20260505081604 | 63 | 191 | 6.0 | 21.0 | 0.00 | 0.00 | 0.00 | 61 | 1010.4 |
| 20260505081058 | 63 | 191 | 4.0 | 14.0 | 0.00 | 0.00 | 0.00 | 62 | 1010.4 |
| 20260505080556 | 63 | 299 | 3.0 | 12.0 | 0.00 | 0.00 | 0.00 | 62 | 1010.4 |
| 20260505080057 | 63 | 274 | 5.0 | 11.0 | 0.00 | 0.00 | 0.00 | 62 | 1010.2 |
| 20260505075558 | 63 | 273 | 3.0 | 11.0 | 0.00 | 0.00 | 0.00 | 62 | 1010.2 |
| 20260505075054 | 63 | 191 | 1.0 | 10.0 | 0.00 | 0.00 | 0.00 | 62 | 1010.2 |
| 20260505074608 | 64 | 326 | 4.0 | 10.0 | 0.00 | 0.00 | 0.00 | 61 | 1010.1 |
| 20260505074053 | 64 | 349 | 2.0 | 10.0 | 0.00 | 0.00 | 0.00 | 61 | 1010.2 |
| 20260505073553 | 64 | 11 | 2.0 | 13.0 | 0.00 | 0.00 | 0.00 | 61 | 1010.1 |
| 20260505073054 | 64 | 215 | 3.0 | 13.0 | 0.00 | 0.00 | 0.00 | 60 | 1010.0 |
| 20260505072551 | 64 | 350 | 2.0 | 8.0 | 0.00 | 0.00 | 0.00 | 61 | 1010.0 |
| 20260505072051 | 64 | 191 | 1.0 | 11.0 | 0.00 | 0.00 | 0.00 | 61 | 1009.9 |
| 20260505071550 | 64 | 167 | 2.0 | 5.0 | 0.00 | 0.00 | 0.00 | 62 | 1009.9 |
| 20260505071049 | 64 | 225 | 3.0 | 10.0 | 0.00 | 0.00 | 0.00 | 61 | 1009.9 |
| 20260505070549 | 64 | 222 | 5.0 | 10.0 | 0.00 | 0.00 | 0.00 | 61 | 1009.9 |
| 20260505070047 | 65 | 323 | 3.0 | 9.0 | 0.00 | 0.00 | 0.00 | 60 | 1009.9 |
| 20260505065547 | 65 | 318 | 1.0 | 6.0 | 0.00 | 0.00 | 0.00 | 61 | 1010.0 |
| 20260505065048 | 65 | 200 | 1.0 | 6.0 | 0.00 | 0.00 | 0.00 | 61 | 1009.8 |
| 20260505064547 | 65 | 221 | 2.0 | 12.0 | 0.00 | 0.00 | 0.00 | 61 | 1009.8 |
| 20260505064046 | 65 | 307 | 1.0 | 12.0 | 0.00 | 0.00 | 0.00 | 61 | 1009.7 |
| 20260505063546 | 65 | 272 | 3.0 | 8.0 | 0.00 | 0.00 | 0.00 | 60 | 1009.7 |
| 20260505063050 | 65 | 253 | 1.0 | 8.0 | 0.00 | 0.00 | 0.00 | 60 | 1009.7 |
| 20260505062546 | 65 | 354 | 2.0 | 8.0 | 0.00 | 0.00 | 0.00 | 60 | 1009.6 |
| 20260505062045 | 65 | 334 | 3.0 | 9.0 | 0.00 | 0.00 | 0.00 | 60 | 1009.6 |
| 20260505061615 | 65 | 260 | 4.0 | 11.0 | 0.00 | 0.00 | 0.00 | 60 | 1009.5 |
| 20260505061045 | 65 | 270 | 4.0 | 11.0 | 0.00 | 0.00 | 0.00 | 60 | 1009.5 |
| 20260505060550 | 65 | 314 | 2.0 | 7.0 | 0.00 | 0.00 | 0.00 | 60 | 1009.4 |
| 20260505060051 | 65 | 239 | 2.0 | 10.0 | 0.00 | 0.00 | 0.00 | 60 | 1009.5 |
| 20260505055545 | 65 | 191 | 5.0 | 14.0 | 0.00 | 0.00 | 0.00 | 60 | 1009.5 |
| 20260505055049 | 65 | 257 | 5.0 | 14.0 | 0.00 | 0.00 | 0.00 | 60 | 1009.4 |
| 20260505054557 | 66 | 258 | 5.0 | 15.0 | 0.00 | 0.00 | 0.00 | 59 | 1009.4 |
| 20260505054044 | 66 | 345 | 1.0 | 15.0 | 0.00 | 0.00 | 0.00 | 58 | 1009.5 |
| 20260505053544 | 66 | 263 | 6.0 | 16.0 | 0.00 | 0.00 | 0.00 | 58 | 1009.4 |
| 20260505053045 | 66 | 261 | 2.0 | 12.0 | 0.00 | 0.00 | 0.00 | 58 | 1009.4 |
| 20260505052544 | 66 | 242 | 4.0 | 12.0 | 0.00 | 0.00 | 0.00 | 58 | 1009.4 |
| 20260505052044 | 66 | 239 | 2.0 | 11.0 | 0.00 | 0.00 | 0.00 | 57 | 1009.5 |
| 20260505051544 | 66 | 191 | 3.0 | 13.0 | 0.00 | 0.00 | 0.00 | 58 | 1009.5 |
| 20260505051044 | 66 | 238 | 7.0 | 13.0 | 0.00 | 0.00 | 0.00 | 58 | 1009.4 |
| 20260505050643 | 66 | 242 | 3.0 | 13.0 | 0.00 | 0.00 | 0.00 | 58 | 1009.4 |
| 20260505041543 | 67 | 252 | 6.0 | 16.0 | 0.00 | 0.00 | 0.00 | 55 | 1008.7 |
| 20260505041042 | 67 | 247 | 5.0 | 12.0 | 0.00 | 0.00 | 0.00 | 55 | 1008.7 |
| 20260505040543 | 67 | 240 | 6.0 | 13.0 | 0.00 | 0.00 | 0.00 | 54 | 1008.7 |
| 20260505040043 | 67 | 227 | 4.0 | 14.0 | 0.00 | 0.00 | 0.00 | 54 | 1008.6 |
| 20260505035542 | 67 | 236 | 7.0 | 14.0 | 0.00 | 0.00 | 0.00 | 54 | 1008.6 |
| 20260505035041 | 67 | 233 | 3.0 | 11.0 | 0.00 | 0.00 | 0.00 | 53 | 1008.5 |
| 20260505034544 | 67 | 260 | 5.0 | 11.0 | 0.00 | 0.00 | 0.00 | 53 | 1008.5 |
| 20260505034041 | 68 | 258 | 5.0 | 17.0 | 0.00 | 0.00 | 0.00 | 53 | 1008.4 |
| 20260505033541 | 68 | 213 | 5.0 | 17.0 | 0.00 | 0.00 | 0.00 | 52 | 1008.3 |
| 20260505033048 | 68 | 236 | 5.0 | 14.0 | 0.00 | 0.00 | 0.00 | 52 | 1008.2 |
| 20260505032541 | 68 | 245 | 4.0 | 16.0 | 0.00 | 0.00 | 0.00 | 51 | 1008.1 |
| 20260505032044 | 68 | 191 | 5.0 | 11.0 | 0.00 | 0.00 | 0.00 | 51 | 1008.1 |
| 20260505031541 | 68 | 265 | 4.0 | 18.0 | 0.00 | 0.00 | 0.00 | 51 | 1008.0 |
| 20260505031041 | 68 | 249 | 7.0 | 14.0 | 0.00 | 0.00 | 0.00 | 51 | 1007.9 |
| 20260505030543 | 68 | 256 | 6.0 | 14.0 | 0.00 | 0.00 | 0.00 | 50 | 1007.9 |
| 20260505030040 | 69 | 237 | 0.0 | 9.0 | 0.00 | 0.00 | 0.00 | 49 | 1007.8 |
| 20260505025540 | 69 | 116 | 4.0 | 16.0 | 0.00 | 0.00 | 0.00 | 49 | 1007.7 |
| 20260505025041 | 69 | 21 | 2.0 | 16.0 | 0.00 | 0.00 | 0.00 | 48 | 1007.7 |
| 20260505024603 | 69 | 209 | 4.0 | 12.0 | 0.00 | 0.00 | 0.00 | 48 | 1007.5 |
| 20260505024042 | 69 | 350 | 2.0 | 16.0 | 0.00 | 0.00 | 0.00 | 48 | 1007.5 |
| 20260505023539 | 70 | 234 | 2.0 | 17.0 | 0.00 | 0.00 | 0.00 | 48 | 1007.4 |
| 20260505023041 | 70 | 273 | 3.0 | 17.0 | 0.00 | 0.00 | 0.00 | 47 | 1007.3 |
| 20260505022539 | 70 | 3 | 1.0 | 11.0 | 0.00 | 0.00 | 0.00 | 49 | 1007.5 |
| 20260505022040 | 70 | 254 | 4.0 | 18.0 | 0.00 | 0.00 | 0.00 | 47 | 1007.4 |
| 20260505021554 | 70 | 268 | 8.0 | 18.0 | 0.00 | 0.00 | 0.00 | 47 | 1007.3 |
| 20260505021038 | 70 | 329 | 3.0 | 9.0 | 0.00 | 0.00 | 0.00 | 46 | 1007.3 |
| 20260505020538 | 71 | 219 | 1.0 | 11.0 | 0.00 | 0.00 | 0.00 | 47 | 1007.4 |
| 20260505020045 | 71 | 259 | 4.0 | 16.0 | 0.00 | 0.00 | 0.00 | 47 | 1007.3 |
| 20260505015538 | 71 | 246 | 4.0 | 16.0 | 0.00 | 0.00 | 0.00 | 46 | 1007.2 |
| 20260505015038 | 71 | 346 | 5.0 | 14.0 | 0.00 | 0.00 | 0.00 | 46 | 1007.2 |
| 20260505014539 | 71 | 248 | 5.0 | 15.0 | 0.00 | 0.00 | 0.00 | 46 | 1007.2 |
| 20260505014037 | 71 | 285 | 3.0 | 13.0 | 0.00 | 0.00 | 0.00 | 45 | 1007.2 |
| 20260505013542 | 71 | 173 | 3.0 | 14.0 | 0.00 | 0.00 | 0.00 | 45 | 1007.2 |
| 20260505013038 | 72 | 191 | 5.0 | 21.0 | 0.00 | 0.00 | 0.00 | 44 | 1007.1 |
| 20260505012538 | 72 | 224 | 4.0 | 15.0 | 0.00 | 0.00 | 0.00 | 44 | 1007.1 |
| 20260505012038 | 72 | 339 | 5.0 | 18.0 | 0.00 | 0.00 | 0.00 | 44 | 1007.1 |
| 20260505011548 | 72 | 264 | 5.0 | 18.0 | 0.00 | 0.00 | 0.00 | 45 | 1007.0 |
| 20260505011038 | 72 | 191 | 8.0 | 17.0 | 0.00 | 0.00 | 0.00 | 44 | 1006.8 |
| 20260505010537 | 72 | 191 | 8.0 | 17.0 | 0.00 | 0.00 | 0.00 | 44 | 1006.8 |
| 20260505010039 | 72 | 323 | 6.0 | 17.0 | 0.00 | 0.00 | 0.00 | 44 | 1006.9 |
| 20260505005537 | 73 | 262 | 4.0 | 17.0 | 0.00 | 0.00 | 0.00 | 44 | 1006.9 |
| 20260505005037 | 73 | 270 | 7.0 | 15.0 | 0.00 | 0.00 | 0.00 | 43 | 1006.8 |
| 20260505004543 | 73 | 191 | 4.0 | 18.0 | 0.00 | 0.00 | 0.00 | 43 | 1006.8 |
| 20260505004037 | 73 | 289 | 7.0 | 22.0 | 0.00 | 0.00 | 0.00 | 43 | 1006.9 |
| 20260505003537 | 73 | 265 | 9.0 | 22.0 | 0.00 | 0.00 | 0.00 | 43 | 1006.8 |
| 20260505003035 | 73 | 259 | 9.0 | 20.0 | 0.00 | 0.00 | 0.00 | 42 | 1006.8 |
| 20260505002537 | 74 | 253 | 10.0 | 20.0 | 0.00 | 0.00 | 0.00 | 41 | 1006.8 |
| 20260505002036 | 74 | 338 | 10.0 | 22.0 | 0.00 | 0.00 | 0.00 | 42 | 1006.8 |
| 20260505001536 | 74 | 260 | 7.0 | 22.0 | 0.00 | 0.00 | 0.00 | 42 | 1006.7 |
| 20260505001035 | 74 | 255 | 6.0 | 22.0 | 0.00 | 0.00 | 0.00 | 42 | 1006.8 |
| 20260505000535 | 74 | 289 | 11.0 | 21.0 | 0.00 | 0.00 | 0.00 | 42 | 1006.8 |
| 20260505000034 | 74 | 191 | 9.0 | 21.0 | 0.00 | 0.00 | 0.00 | 42 | 1006.7 |
| 20260504235534 | 74 | 191 | 8.0 | 21.0 | 0.00 | 0.00 | 0.00 | 42 | 1006.8 |
| 20260504235038 | 74 | 191 | 10.0 | 21.0 | 0.00 | 0.00 | 0.00 | 40 | 1006.8 |
| 20260504234534 | 75 | 250 | 8.0 | 20.0 | 0.00 | 0.00 | 0.00 | 40 | 1006.7 |
| 20260504234038 | 75 | 333 | 9.0 | 21.0 | 0.00 | 0.00 | 0.00 | 39 | 1006.6 |
| 20260504233534 | 75 | 339 | 9.0 | 21.0 | 0.00 | 0.00 | 0.00 | 39 | 1006.6 |
| 20260504233043 | 76 | 312 | 8.0 | 21.0 | 0.00 | 0.00 | 0.00 | 38 | 1006.6 |
| 20260504232534 | 76 | 271 | 6.0 | 18.0 | 0.00 | 0.00 | 0.00 | 39 | 1006.6 |
| 20260504232031 | 76 | 272 | 8.0 | 21.0 | 0.00 | 0.00 | 0.00 | 39 | 1006.6 |
| 20260504231530 | 76 | 307 | 7.0 | 21.0 | 0.00 | 0.00 | 0.00 | 39 | 1006.7 |
| 20260504231029 | 75 | 238 | 8.0 | 18.0 | 0.00 | 0.00 | 0.00 | 42 | 1006.8 |
| 20260504230529 | 75 | 191 | 9.0 | 19.0 | 0.00 | 0.00 | 0.00 | 41 | 1006.7 |
| 20260504230028 | 75 | 229 | 10.0 | 24.0 | 0.00 | 0.00 | 0.00 | 42 | 1006.8 |
| 20260504225529 | 74 | 231 | 12.0 | 24.0 | 0.00 | 0.00 | 0.00 | 43 | 1006.8 |
| 20260504225026 | 72 | 345 | 9.0 | 24.0 | 0.00 | 0.00 | 0.00 | 46 | 1006.9 |
| 20260504224524 | 71 | 259 | 11.0 | 24.0 | 0.00 | 0.00 | 0.00 | 46 | 1007.0 |
| 20260504224024 | 71 | 265 | 8.0 | 21.0 | 0.00 | 0.00 | 0.00 | 46 | 1007.1 |
| 20260504223523 | 72 | 271 | 9.0 | 26.0 | 0.00 | 0.00 | 0.00 | 47 | 1007.2 |
| 20260504223027 | 71 | 260 | 14.0 | 26.0 | 0.00 | 0.00 | 0.00 | 47 | 1007.2 |
| 20260504222521 | 71 | 238 | 10.0 | 25.0 | 0.00 | 0.00 | 0.00 | 50 | 1007.3 |
| 20260504222020 | 70 | 256 | 12.0 | 25.0 | 0.00 | 0.00 | 0.00 | 49 | 1007.4 |
| 20260504221519 | 70 | 263 | 14.0 | 27.0 | 0.00 | 0.00 | 0.00 | 50 | 1007.4 |
| 20260504221018 | 70 | 260 | 17.0 | 27.0 | 0.00 | 0.00 | 0.00 | 50 | 1007.4 |
| 20260504220522 | 71 | 191 | 10.0 | 21.0 | 0.00 | 0.00 | 0.00 | 49 | 1007.5 |
| 20260504220022 | 71 | 236 | 11.0 | 21.0 | 0.00 | 0.00 | 0.00 | 48 | 1007.5 |
| 20260504215518 | 70 | 254 | 8.0 | 21.0 | 0.00 | 0.00 | 0.00 | 49 | 1007.6 |
| 20260504215019 | 71 | 223 | 8.0 | 19.0 | 0.00 | 0.00 | 0.00 | 47 | 1007.5 |
| 20260504214517 | 71 | 235 | 8.0 | 18.0 | 0.00 | 0.00 | 0.00 | 49 | 1007.6 |
| 20260504214017 | 70 | 191 | 8.0 | 22.0 | 0.00 | 0.00 | 0.00 | 48 | 1007.6 |
| 20260504213517 | 70 | 260 | 7.0 | 22.0 | 0.00 | 0.00 | 0.00 | 49 | 1007.8 |
| 20260504213018 | 71 | 259 | 9.0 | 22.0 | 0.00 | 0.00 | 0.00 | 47 | 1007.8 |
| 20260504212516 | 71 | 191 | 5.0 | 22.0 | 0.00 | 0.00 | 0.00 | 48 | 1008.0 |
| 20260504212014 | 70 | 267 | 7.0 | 22.0 | 0.00 | 0.00 | 0.00 | 49 | 1008.1 |
| 20260504211514 | 70 | 248 | 6.0 | 19.0 | 0.00 | 0.00 | 0.00 | 47 | 1008.1 |
| 20260504211014 | 70 | 273 | 9.0 | 22.0 | 0.00 | 0.00 | 0.00 | 49 | 1008.2 |
| 20260504210517 | 70 | 273 | 10.0 | 21.0 | 0.00 | 0.00 | 0.00 | 49 | 1008.3 |
| 20260504210013 | 70 | 253 | 8.0 | 19.0 | 0.00 | 0.00 | 0.00 | 48 | 1008.2 |
| 20260504205515 | 70 | 242 | 8.0 | 21.0 | 0.00 | 0.00 | 0.00 | 50 | 1008.3 |
| 20260504205012 | 70 | 273 | 7.0 | 17.0 | 0.00 | 0.00 | 0.00 | 49 | 1008.4 |
| 20260504204516 | 70 | 263 | 7.0 | 21.0 | 0.00 | 0.00 | 0.00 | 51 | 1008.4 |
| 20260504204009 | 70 | 235 | 9.0 | 22.0 | 0.00 | 0.00 | 0.00 | 49 | 1008.5 |
| 20260504203510 | 69 | 276 | 9.0 | 23.0 | 0.00 | 0.00 | 0.00 | 50 | 1008.5 |
| 20260504203008 | 69 | 231 | 9.0 | 23.0 | 0.00 | 0.00 | 0.00 | 49 | 1008.7 |
| 20260504202508 | 69 | 288 | 13.0 | 21.0 | 0.00 | 0.00 | 0.00 | 51 | 1008.6 |
| 20260504202007 | 69 | 256 | 10.0 | 19.0 | 0.00 | 0.00 | 0.00 | 51 | 1008.7 |
| 20260504201507 | 68 | 228 | 10.0 | 21.0 | 0.00 | 0.00 | 0.00 | 53 | 1008.6 |
| 20260504201008 | 68 | 250 | 12.0 | 21.0 | 0.00 | 0.00 | 0.00 | 53 | 1008.7 |
| 20260504200506 | 68 | 191 | 12.0 | 23.0 | 0.00 | 0.00 | 0.00 | 52 | 1008.6 |
| 20260504200006 | 68 | 266 | 14.0 | 26.0 | 0.00 | 0.00 | 0.00 | 52 | 1008.6 |
| 20260504195504 | 68 | 306 | 13.0 | 28.0 | 0.00 | 0.00 | 0.00 | 53 | 1008.7 |
| 20260504195005 | 68 | 191 | 15.0 | 27.0 | 0.00 | 0.00 | 0.00 | 53 | 1008.7 |
| 20260504194507 | 68 | 263 | 12.0 | 28.0 | 0.00 | 0.00 | 0.00 | 51 | 1008.7 |
| 20260504194005 | 68 | 191 | 13.0 | 28.0 | 0.00 | 0.00 | 0.00 | 51 | 1008.8 |
| 20260504193503 | 68 | 256 | 14.0 | 27.0 | 0.00 | 0.00 | 0.00 | 53 | 1008.7 |
| 20260504193003 | 68 | 191 | 12.0 | 26.0 | 0.00 | 0.00 | 0.00 | 54 | 1008.8 |
| 20260504192502 | 68 | 248 | 14.0 | 28.0 | 0.00 | 0.00 | 0.00 | 52 | 1008.7 |
| 20260504192001 | 68 | 262 | 15.0 | 31.0 | 0.00 | 0.00 | 0.00 | 54 | 1008.9 |
| 20260504191502 | 68 | 281 | 17.0 | 31.0 | 0.00 | 0.00 | 0.00 | 53 | 1008.8 |
| 20260504191059 | 68 | 276 | 11.0 | 25.0 | 0.00 | 0.00 | 0.00 | 53 | 1009.0 |
| 20260504190559 | 67 | 266 | 11.0 | 25.0 | 0.00 | 0.00 | 0.00 | 55 | 1009.0 |
| 20260504190057 | 67 | 252 | 14.0 | 25.0 | 0.00 | 0.00 | 0.00 | 53 | 1009.0 |
| 20260504185556 | 67 | 258 | 10.0 | 28.0 | 0.00 | 0.00 | 0.00 | 54 | 1009.0 |
| 20260504185055 | 67 | 191 | 17.0 | 28.0 | 0.00 | 0.00 | 0.00 | 54 | 1009.1 |
| 20260504184559 | 67 | 254 | 15.0 | 24.0 | 0.00 | 0.00 | 0.00 | 53 | 1009.0 |
| 20260504184055 | 67 | 275 | 14.0 | 26.0 | 0.00 | 0.00 | 0.00 | 54 | 1009.1 |
| 20260504183553 | 67 | 191 | 12.0 | 26.0 | 0.00 | 0.00 | 0.00 | 55 | 1009.2 |
| 20260504183051 | 66 | 283 | 13.0 | 24.0 | 0.00 | 0.00 | 0.00 | 55 | 1009.2 |
| 20260504182550 | 66 | 276 | 14.0 | 30.0 | 0.00 | 0.00 | 0.00 | 55 | 1009.2 |
| 20260504182048 | 66 | 277 | 17.0 | 31.0 | 0.00 | 0.00 | 0.00 | 56 | 1009.2 |